Weather History for Fayetteville, NC

Change the Weather History Date:

Monday, August 19, 2013

  Actual Average Record
Temperature  
Mean Temperature 72 °F 79 °F  
Max Temperature 74 °F 89 °F 105 °F (1988)
Min Temperature 70 °F 69 °F 55 °F (1979)
Degree Days  
Heating Degree Days 0 0  
Month to date heating degree days 0 0  
Since 1 June heating degree days 0 0  
Since 1 July heating degree days 0 0  
Cooling Degree Days 7 14  
Month to date cooling degree days 276 291  
Year to date cooling degree days 1419 1478  
Since 1 June cooling degree days 1170 1194  
Growing Degree Days 21 (Base 50)    
Moisture  
Dew Point 70 °F    
Average Humidity 97    
Maximum Humidity 100    
Minimum Humidity 93    
Precipitation  
Precipitation 1.01 in 0.18 in 3.21 in (1986)
Month to date precipitation 3.19 3.54  
Year to date precipitation 32.21 29.48  
Sea Level Pressure  
Sea Level Pressure 30.14 in    
Wind  
Wind Speed 5 mph (NNE)    
Max Wind Speed 13 mph    
Max Gust Speed 15 mph    
Visibility 7 miles    
Events Rain    
T = Trace of Precipitation, MM = Missing Value Source: NWS Daily Summary

Daily Weather History Graph

Daily Weather History Graph

Search for Another Location

Airport:

Trip Planner

Search our weather history database for the weather conditions in past years. The results will help you decide how hot, cold, wet, or windy it might be!

Date:

Astronomy

Aug. 19, 2013 Rise Set
Actual Time 6:38 AM EDT 7:58 PM EDT
Civil Twilight 6:12 AM EDT 8:25 PM EDT
Nautical Twilight 5:40 AM EDT 8:56 PM EDT
Astronomical Twilight 5:07 AM EDT 9:29 PM EDT
Moon 6:48 PM EDT (8/19) 4:57 AM EDT (8/19)
Length of Visible Light 14h 13m
Length of Day
13h 20m
Waxing Gibbous, 97% of the Moon is Illuminated
Aug 19
Waxing Gibbous
Aug 20
Full
Aug 28
Last Quarter
Sep 5
New
Sep 12
First Quarter

Hourly Weather History & Observations

Time (EDT) Temp. Dew Point Humidity Pressure Visibility Wind Dir Wind Speed Gust Speed Precip Events Conditions
12:53 AM 73.9 °F 70.0 °F 87% 30.17 in 9.0 mi NNE 5.8 mph - 0.01 in Rain Light Rain
1:53 AM 72.0 °F 70.0 °F 93% 30.15 in 10.0 mi NE 3.5 mph - 0.00 in   Mostly Cloudy
2:32 AM 71.6 °F 69.8 °F 94% 30.16 in 10.0 mi NNE 5.8 mph - N/A   Overcast
2:53 AM 72.0 °F 70.0 °F 93% 30.14 in 10.0 mi NE 3.5 mph - N/A   Overcast
3:23 AM 71.6 °F 69.8 °F 94% 30.15 in 5.0 mi NE 6.9 mph - 0.02 in Rain Light Rain
3:53 AM 71.1 °F 70.0 °F 96% 30.13 in 2.0 mi North 6.9 mph - 0.15 in Rain Rain
4:00 AM 71.6 °F 69.8 °F 94% 30.14 in 1.2 mi NNE 6.9 mph - 0.07 in Rain Rain
4:06 AM 71.6 °F 69.8 °F 94% 30.15 in 3.0 mi North 4.6 mph - 0.08 in Rain Light Rain
4:17 AM 71.6 °F 69.8 °F 94% 30.15 in 3.0 mi NW 4.6 mph - 0.12 in Rain Light Rain
4:27 AM 71.6 °F 69.8 °F 94% 30.16 in 10.0 mi NNW 3.5 mph - 0.13 in   Overcast
4:36 AM 71.6 °F 69.8 °F 94% 30.15 in 10.0 mi North 5.8 mph - 0.13 in   Overcast
4:39 AM 71.6 °F 69.8 °F 94% 30.15 in 10.0 mi North 4.6 mph - 0.13 in   Overcast
4:53 AM 71.1 °F 70.0 °F 96% 30.14 in 10.0 mi NW 5.8 mph - 0.13 in   Overcast
5:39 AM 71.6 °F 69.8 °F 94% 30.14 in 6.0 mi East 5.8 mph - 0.01 in Rain Light Rain
5:53 AM 71.1 °F 70.0 °F 96% 30.12 in 1.0 mi East 4.6 mph - 0.02 in Rain Light Rain
6:10 AM 71.6 °F 69.8 °F 94% 30.14 in 10.0 mi NNE 3.5 mph - 0.00 in Rain Light Rain
6:44 AM 71.6 °F 69.8 °F 94% 30.13 in 8.0 mi NE 5.8 mph - 0.04 in   Overcast
6:53 AM 71.1 °F 70.0 °F 96% 30.12 in 7.0 mi North 5.8 mph - 0.04 in   Overcast
7:53 AM 71.1 °F 70.0 °F 96% 30.12 in 8.0 mi Calm Calm - 0.02 in Rain Light Rain
8:53 AM 71.1 °F 70.0 °F 96% 30.13 in 10.0 mi North 8.1 mph - 0.01 in   Overcast
9:06 AM 71.6 °F 69.8 °F 94% 30.15 in 10.0 mi North 9.2 mph - N/A   Overcast
9:53 AM 71.1 °F 69.1 °F 93% 30.14 in 10.0 mi NNE 9.2 mph - 0.00 in Rain Light Rain
10:25 AM 69.8 °F 69.8 °F 100% 30.18 in 2.5 mi ENE 3.5 mph - 0.10 in Rain Rain
10:34 AM 69.8 °F 69.8 °F 100% 30.18 in 3.0 mi ENE 6.9 mph - 0.13 in Rain Light Rain
10:53 AM 70.0 °F 69.1 °F 97% 30.17 in 3.0 mi Calm Calm - 0.21 in Rain Rain
11:20 AM 69.8 °F 69.8 °F 100% 30.19 in 2.5 mi NE 3.5 mph - 0.10 in Rain Rain
11:30 AM 69.8 °F 69.8 °F 100% 30.18 in 2.0 mi Calm Calm - 0.15 in Rain Rain
11:39 AM 69.8 °F 69.8 °F 100% 30.18 in 1.8 mi NE 4.6 mph - 0.19 in Rain Rain
11:46 AM 69.8 °F 69.8 °F 100% 30.17 in 2.5 mi NNE 6.9 mph - 0.22 in Rain Rain
11:53 AM 70.0 °F 69.1 °F 97% 30.16 in 2.5 mi NNE 5.8 mph - 0.24 in Rain Rain
11:56 AM 69.8 °F 69.8 °F 100% 30.17 in 3.0 mi NNE 4.6 mph - 0.01 in Rain Light Rain
12:53 PM 72.0 °F 70.0 °F 93% 30.14 in 10.0 mi NE 4.6 mph - 0.05 in   Overcast
1:53 PM 73.9 °F 71.1 °F 91% 30.13 in 10.0 mi ENE 4.6 mph - 0.00 in Rain Light Rain
2:53 PM 73.9 °F 71.1 °F 91% 30.12 in 5.0 mi NE 5.8 mph - 0.01 in Rain Light Rain
3:21 PM 73.4 °F 71.6 °F 94% 30.13 in 4.0 mi NNE 8.1 mph - 0.03 in Rain Light Rain
3:40 PM 73.4 °F 71.6 °F 94% 30.13 in 7.0 mi North 6.9 mph - 0.03 in Rain Light Rain
3:50 PM 73.4 °F 71.6 °F 94% 30.13 in 1.8 mi North 9.2 mph - 0.08 in Rain Rain
3:53 PM 73.0 °F 71.1 °F 93% 30.11 in 1.5 mi North 8.1 mph - 0.09 in Rain Rain
4:02 PM 73.4 °F 71.6 °F 94% 30.12 in 3.0 mi NNE 9.2 mph - 0.02 in Rain Light Rain
4:15 PM 73.4 °F 71.6 °F 94% 30.12 in 7.0 mi North 8.1 mph - 0.02 in Rain Light Rain
4:53 PM 73.0 °F 71.1 °F 93% 30.10 in 10.0 mi NNE 5.8 mph - 0.03 in   Overcast
5:53 PM 73.0 °F 71.1 °F 93% 30.08 in 10.0 mi NE 4.6 mph - 0.01 in   Overcast
6:53 PM 73.9 °F 72.0 °F 93% 30.08 in 10.0 mi NE 3.5 mph - N/A   Overcast
7:53 PM 73.9 °F 72.0 °F 93% 30.09 in 10.0 mi North 4.6 mph - N/A   Overcast
8:32 PM 73.4 °F 71.6 °F 94% 30.11 in 8.0 mi NNE 3.5 mph - N/A   Overcast
8:53 PM 73.0 °F 72.0 °F 96% 30.09 in 10.0 mi NNE 5.8 mph - N/A   Mostly Cloudy
9:48 PM 73.4 °F 71.6 °F 94% 30.12 in 10.0 mi NNE 5.8 mph - N/A   Overcast
9:53 PM 73.0 °F 72.0 °F 96% 30.10 in 10.0 mi NNE 6.9 mph - N/A   Overcast
10:06 PM 73.4 °F 71.6 °F 94% 30.12 in 10.0 mi NNE 9.2 mph - N/A   Overcast
10:17 PM 73.4 °F 69.8 °F 88% 30.12 in 10.0 mi NNE 8.1 mph - N/A   Overcast
10:53 PM 72.0 °F 70.0 °F 93% 30.10 in 10.0 mi NNE 5.8 mph - N/A   Overcast
11:35 PM 71.6 °F 69.8 °F 94% 30.13 in 10.0 mi NNE 5.8 mph - N/A   Overcast
11:53 PM 72.0 °F 70.0 °F 93% 30.11 in 10.0 mi NNE 4.6 mph - N/A   Overcast